Orbital Elements at Epoch 2459200.5 (2020-Dec-17.0) TDB
Reference: JPL 15 (heliocentric ecliptic J2000)
Element | Value | Uncertainty (1-sigma) | Units |
e | .1681853822302707 | 5.1843e-08 | |
a | 2.413032571421786 | 2.0956e-08 | au |
q | 2.00719576606312 | 1.2415e-07 | au |
i | 5.152485781650936 | 8.5594e-06 | deg |
node | 25.70901527379669 | 5.2637e-05 | deg |
peri | 310.4540813781912 | 5.8753e-05 | deg |
M | 91.67644092870295 | 2.8511e-05 | deg |
tp | 2458851.842953418317 (2020-Jan-03.34295342) | 0.00010563 | TDB |
period | 1369.125322688089 3.75 | 1.7835e-05 4.883e-08 | d yr |
n | .2629415978467111 | 3.4253e-09 | deg/d |
Q | 2.818869376780452 | 2.4481e-08 | au |
|
| | Orbit Determination Parameters
Additional Information
|